Location: Caltech
(34.1382°N, 118.1253°W)
Time: 17:42:11
(UTC-07:00)

NOSS 3-2 (A) - Visible Passes

Search period start: 21 April 2018 00:00
Search period end: 01 May 2018 00:00
Orbit: 855 x 1353 km, 63.4° (Epoch: 19 March)

Date Brightness Start Highest point End Pass type
(mag) Time Alt. Az. Time Alt. Az. Time Alt. Az.
21 Apr 5.7 02:53:54 12° ESE 02:54:33 13° ESE 02:56:58 10° E visible
21 Apr 3.3 04:41:19 30° SW 04:44:21 75° WNW 04:50:43 10° NNE visible
22 Apr 3.6 03:57:37 48° S 03:59:03 63° ESE 04:05:15 10° NE visible
22 Apr 4.9 05:45:59 10° W 05:50:27 21° NW 05:55:15 10° N visible
23 Apr 4.4 03:13:52 34° ESE 03:13:56 34° ESE 03:19:25 10° NE visible
23 Apr 4.3 05:01:15 19° W 05:04:38 33° NW 05:10:24 10° NNE visible
24 Apr 5.4 02:30:03 17° E 02:30:03 17° E 02:32:56 10° ENE visible
24 Apr 3.6 04:17:26 43° WSW 04:19:02 56° NW 04:25:19 10° NNE visible
25 Apr 3.2 03:33:35 85° SE 03:33:39 85° ESE 03:39:58 10° NNE visible
25 Apr 5.3 05:21:37 10° WNW 05:25:25 17° NW 05:29:26 10° N visible
26 Apr 4.3 02:49:40 41° E 02:49:40 41° E 02:54:22 10° NE visible
26 Apr 4.7 04:37:03 20° W 04:39:29 26° NW 04:44:49 10° N visible
27 Apr 5.4 02:05:43 20° ENE 02:05:43 20° ENE 02:08:18 10° NE visible
27 Apr 3.9 03:53:06 41° WNW 03:53:47 42° NW 03:59:50 10° NNE visible
28 Apr 3.6 03:09:06 63° N 03:09:06 63° N 03:14:38 10° NNE visible
28 Apr 5.4 04:57:35 10° WNW 05:00:27 13° NW 05:03:25 10° N visible
29 Apr 4.4 02:25:04 41° NE 02:25:04 41° NE 02:29:12 10° NE visible
29 Apr 5.0 04:12:27 18° WNW 04:14:24 21° NW 04:19:07 10° N visible
30 Apr 5.3 01:40:59 22° ENE 01:40:59 22° ENE 01:43:24 10° NE visible
30 Apr 4.4 03:28:22 32° NW 03:28:36 32° NW 03:34:19 10° NNE visible
